[[{"header":{"parameterUnit":"m.s-1","parameterCategory":1,"la1":30.2991,"la2":30.254,"lo1":-89.0895,"lo2":-89.0444,"dy":0.0017,"dx":0.0017,"nx":28,"ny":28,"refTime":"2024-04-09T21:00:00:Z","depth":0,"parameterNumber":2,"parameterNumberName":"U-component_of_WINDS"},"data":[0,0,0,0,0,0,0,0,0,0,0,0,0,0,0,0,0,0,0,0,0,0,0,0,0,0,0,0,0,0,0,0,0,0,0,0,0,0,0,0,0,0,0,0,0,0,0,0,0,0,0,0,0,0,0,0,0,0,-6.9746,-6.9748,0,-6.9882,-6.9883,-6.9885,-6.9866,-6.9863,-6.9861,-6.9859,-6.9993,-6.9999,-7.0005,0,0,0,0,0,0,0,0,0,0,0,0,0,-6.9469,-6.9474,-6.9746,-6.9748,-6.975,-6.9881,-6.9883,-6.9885,-6.9866,-6.9863,-6.986,-6.9858,-6.9992,-6.9998,-7.0005,0,0,0,0,0,0,0,0,0,0,0,0,0,-6.9595,-6.9476,-6.9746,-6.9756,-6.9758,-6.9881,-6.9883,-6.9886,-6.9866,-6.9863,-6.986,-6.9857,-6.9989,-6.9998,-7.0006,-7.0126,0,0,-7.0032,-7.0036,0,0,0,0,0,0,0,0,-6.9588,-6.9605,-6.9753,-6.9756,-6.9758,-6.9853,-6.9835,-6.9966,-6.9867,-6.9825,-6.9859,-6.9855,-6.9949,-6.9961,-6.9993,-7.0132,-7.0138,-7.0033,-7.0038,-7.0042,-7.0044,0,0,0,0,0,0,0,-6.9579,-6.9599,-6.98,-6.9755,-6.9758,-6.9753,-6.9767,-6.986,-6.9904,-6.9829,-6.9828,-6.9844,-6.995,-6.9985,-6.9996,-7.014,-7.0032,-7.004,-7.0045,-7.0049,-7.0384,-7.0387,0,0,0,0,0,0,-6.9568,-6.9592,-6.9795,-6.9804,-6.9663,-6.9761,-6.9777,-6.9826,-6.9903,-6.9912,-6.9847,-6.9843,-6.9972,-6.9987,-7.0001,-7.0145,-7.0041,-7.0049,-7.0054,-7.038,-7.0384,-7.0389,0,0,0,0,0,0,-6.9562,-6.9587,-6.979,-6.9698,-6.9723,-6.9769,-6.9825,-6.9831,-6.9866,-6.9917,-6.9925,-6.9875,-6.997,-6.9989,-7.0095,-7.015,-7.0053,-7.0061,-7.0375,-7.0381,-7.0387,-7.0435,0,0,0,0,0,0,-6.9555,-6.9585,-6.9631,-6.9699,-6.9728,-6.9883,-6.9828,-6.9836,-6.9881,-6.9877,-6.9945,-6.9953,-6.9969,-7.0083,-7.0104,-7.016,-7.0068,-7.0371,-7.0378,-7.0385,-7.0429,-7.0442,-7.0453,0,0,0,0,0,-6.9545,-6.9639,-6.9633,-6.9658,-6.9788,-6.9886,-6.9902,-6.992,-6.9886,-6.9932,-6.9965,-6.9951,-7.0142,-7.0094,-7.0117,-7.0177,-7.0367,-7.0376,-7.0384,-7.0424,-7.044,-7.0453,0,0,0,0,0,0,-6.9574,-6.9648,-6.9643,-6.9762,-6.9818,-6.9882,-6.9941,-6.9936,-7.0002,-6.9995,-7.0013,-7.0029,-7.0136,-7.0167,-7.0113,-7.0297,-7.0249,-7.0263,-7.0271,-7.0287,-7.0299,-7.0287,-7.0075,0,0,0,0,0,-6.9595,-6.9669,-6.9729,-6.9828,-6.9857,-6.9895,-6.9938,-6.9947,-7.0005,-7.0028,-7.0069,-7.0125,-7.0198,-7.0245,-7.0314,-7.0435,-7.0449,-7.0488,-7.05,-7.051,-7.052,-7.0585,-7.0603,-7.0417,-7.0417,-7.0416,0,0,-6.9637,-6.9687,-6.9732,-6.9836,-6.988,-6.9956,-6.9915,-6.9996,-7.0052,-7.004,-7.0142,-7.0175,-7.0239,-7.0353,-7.0405,-7.0382,-7.0575,-7.0521,-7.0528,-7.0533,-7.0596,-7.0613,-7.0629,-7.0422,-7.0421,-7.042,0,0,-6.9752,-6.9799,-6.9886,-6.9932,-7.0,-7.0025,-7.0047,-7.0113,-7.0134,-7.0238,-7.0231,-7.0298,-7.0422,-7.0468,-7.0507,-7.0643,-7.0632,-7.0666,-7.0727,-7.079,-7.0805,-7.0818,-7.0864,-7.0881,-7.0677,-7.0677,-7.0677,0,-6.9795,-6.991,-6.9931,-7.0014,-7.0059,-7.0055,-7.0142,-7.0186,-7.0273,-7.0304,-7.0279,-7.0435,-7.0478,-7.0602,-7.0635,-7.0669,-7.0692,-7.0655,-7.0802,-7.0815,-7.0827,-7.0871,-7.0889,-7.068,-7.068,-7.0679,-7.0679,0,-6.9959,-7.0039,-7.0101,-7.0187,-7.024,-7.0325,-7.0357,-7.0409,-7.0414,-7.0441,-7.0547,-7.0599,-7.0678,-7.071,-7.0715,-7.0835,-7.0818,-7.0798,-7.0749,-7.0848,-7.0889,-7.0907,-7.0685,-7.0684,-7.0683,-7.0682,0,0,-7.0092,-7.0191,-7.0213,-7.0252,-7.0329,-7.039,-7.0476,-7.0555,-7.0598,-7.0659,-7.073,-7.0837,-7.0818,-7.0863,-7.0874,-7.0931,-7.1033,-7.0903,-7.0904,-7.0922,-7.1165,-7.1178,-7.1197,-7.1028,-7.1031,-7.1034,-7.1159,0,-7.0213,-7.0364,-7.0386,-7.0518,-7.0592,-7.059,-7.0664,-7.0719,-7.0748,-7.0814,-7.0845,-7.092,-7.0891,-7.0918,-7.0974,-7.1008,-7.1081,-7.1,-7.1091,-7.1094,-7.1071,-7.1219,-7.1233,-7.1348,-7.1176,-7.1179,-7.1181,0,-7.0372,-7.044,-7.058,-7.0647,-7.0679,-7.0745,-7.082,-7.0884,-7.0946,-7.0963,-7.1015,-7.102,-7.1107,-7.1059,-7.1179,-7.1123,-7.1163,-7.1185,-7.119,-7.1196,-7.114,-7.1226,-7.1386,-7.1402,-7.1207,-7.1205,-7.1203,0,-7.0452,-7.0578,-7.0678,-7.0712,-7.0794,-7.084,-7.0876,-7.0936,-7.0982,-7.1048,-7.1078,-7.1153,-7.1193,-7.1251,-7.1276,-7.1239,-7.1393,-7.1348,-7.1408,-7.1407,-7.1437,-7.1434,-7.1601,-7.1468,-7.1468,-7.1468,-7.1467,0,-7.0582,-7.0667,-7.0715,-7.0776,-7.0871,-7.0897,-7.099,-7.1025,-7.1078,-7.1145,-7.115,-7.1212,-7.1243,-7.131,-7.1331,-7.1425,-7.1444,-7.1459,-7.1463,-7.1457,-7.1454,-7.1479,-7.1471,-7.1472,-7.1471,-7.147,-7.147,0,-7.0685,-7.0721,-7.083,-7.0899,-7.0919,-7.0986,-7.1045,-7.1104,-7.1134,-7.1219,-7.124,-7.1286,-7.1366,-7.1398,-7.1495,-7.1509,-7.1617,-7.1616,-7.1596,-7.1596,-7.1653,-7.1646,-7.184,-7.1866,-7.1719,-7.172,-7.1721,0,-7.0764,-7.0829,-7.0907,-7.0953,-7.0991,-7.1065,-7.1113,-7.1142,-7.1191,-7.1268,-7.1318,-7.1398,-7.1463,-7.159,-7.1631,-7.1706,-7.1705,-7.1768,-7.1715,-7.1707,-7.1702,-7.1696,-7.1702,-7.1776,-7.1777,-7.1778,-7.1779,0,-7.0899,-7.0914,-7.0984,-7.106,-7.1118,-7.118,-7.1239,-7.1277,-7.1314,-7.137,-7.1452,-7.1503,-7.1603,-7.1682,-7.1759,-7.1795,-7.1793,-7.1796,-7.1814,-7.1806,-7.179,-7.1797,-7.1618,-7.179,-7.1789,-7.1789,-7.1788,-7.1787,-7.099,-7.1048,-7.1112,-7.119,-7.1238,-7.1295,-7.1353,-7.1391,-7.1461,-7.1545,-7.1558,-7.1646,-7.1707,-7.1811,-7.1851,-7.1919,-7.1902,-7.1928,-7.1934,-7.1939,-7.1941,-7.1783,-7.1934,-7.1933,-7.1933,-7.1933,-7.1933,0,-7.1123,-7.1165,-7.1236,-7.132,-7.1382,-7.1378,-7.1444,-7.1495,-7.1572,-7.1631,-7.1695,-7.179,-7.1867,-7.1916,-7.1993,-7.2038,-7.2039,-7.2057,-7.2052,-7.206,-7.1953,-7.1929,-7.2055,-7.2055,-7.2055,-7.2055,-7.2055,-7.2055,-7.1199,-7.1296,-7.1319,-7.1441,-7.1482,-7.1569,-7.1607,-7.1658,-7.1705,-7.1811,-7.1875,-7.1907,-7.1962,-7.2044,-7.2114,-7.2126,-7.2153,-7.2172,-7.2183,-7.2081,-7.2068,-7.2055,-7.2033,-7.2178,-7.2179,-7.2283,-7.2284,-7.2285]},{"header":{"parameterUnit":"m.s-1","parameterCategory":1,"la1":30.2991,"la2":30.254,"lo1":-89.0895,"lo2":-89.0444,"dy":0.0017,"dx":0.0017,"nx":28,"ny":28,"refTime":"2024-04-09T21:00:00:Z","depth":0,"parameterNumber":3,"parameterNumberName":"V-component_of_WINDS"},"data":[0,0,0,0,0,0,0,0,0,0,0,0,0,0,0,0,0,0,0,0,0,0,0,0,0,0,0,0,0,0,0,0,0,0,0,0,0,0,0,0,0,0,0,0,0,0,0,0,0,0,0,0,0,0,0,0,0,0,5.3617,5.3618,0,5.3689,5.3689,5.369,5.3665,5.3664,5.3662,5.3661,5.3729,5.3733,5.3736,0,0,0,0,0,0,0,0,0,0,0,0,0,5.3456,5.346,5.3617,5.3618,5.3619,5.3689,5.369,5.369,5.3666,5.3664,5.3662,5.366,5.3728,5.3732,5.3736,0,0,0,0,0,0,0,0,0,0,0,0,0,5.3527,5.3461,5.3617,5.3615,5.3616,5.3688,5.369,5.3691,5.3666,5.3664,5.3661,5.3659,5.3727,5.3732,5.3737,5.3814,0,0,5.3752,5.3754,0,0,0,0,0,0,0,0,5.3523,5.3533,5.3615,5.3615,5.3616,5.3666,5.3658,5.3732,5.3667,5.3647,5.3661,5.3658,5.371,5.3716,5.3734,5.3817,5.382,5.3752,5.3755,5.3757,5.3759,0,0,0,0,0,0,0,5.3518,5.3529,5.3645,5.3616,5.3617,5.361,5.3617,5.3672,5.369,5.3648,5.3647,5.3656,5.371,5.373,5.3736,5.3821,5.3752,5.3756,5.3759,5.3761,5.3973,5.3976,0,0,0,0,0,0,5.3513,5.3526,5.3643,5.3647,5.3563,5.3615,5.3623,5.3652,5.369,5.3693,5.3658,5.3654,5.3722,5.373,5.3738,5.3833,5.3757,5.3762,5.3765,5.397,5.3974,5.3977,0,0,0,0,0,0,5.351,5.3524,5.364,5.3586,5.36,5.362,5.3653,5.3655,5.3675,5.3697,5.37,5.3675,5.3721,5.3731,5.3796,5.3835,5.3764,5.3769,5.3967,5.3971,5.3975,5.4022,0,0,0,0,0,0,5.3505,5.3523,5.3553,5.3587,5.3604,5.3698,5.3655,5.3658,5.3684,5.368,5.3714,5.3717,5.372,5.3789,5.3801,5.384,5.3772,5.3964,5.3969,5.3974,5.4017,5.4027,5.4035,0,0,0,0,0,5.35,5.3562,5.3555,5.3569,5.3642,5.37,5.3709,5.3713,5.3687,5.3717,5.3732,5.3716,5.3829,5.3796,5.3809,5.385,5.3961,5.3968,5.3973,5.4012,5.4025,5.4035,0,0,0,0,0,0,5.3529,5.3566,5.3559,5.3634,5.3664,5.3696,5.3734,5.3725,5.3762,5.3757,5.3758,5.3766,5.3833,5.3848,5.3811,5.3928,5.3891,5.39,5.3916,5.3928,5.3937,5.3932,5.3776,0,0,0,0,0,5.3545,5.3591,5.362,5.3683,5.3699,5.3714,5.374,5.374,5.3771,5.3783,5.3802,5.3832,5.3874,5.3902,5.3941,5.4019,5.4026,5.4054,5.4063,5.4071,5.4078,5.4122,5.4135,5.3996,5.3996,5.3996,0,0,5.3577,5.3603,5.3631,5.369,5.3713,5.376,5.3725,5.3775,5.381,5.379,5.3854,5.3869,5.3902,5.3974,5.4007,5.3989,5.4118,5.4078,5.4084,5.4088,5.4129,5.4143,5.4154,5.4,5.4,5.3999,0,0,5.3659,5.3683,5.374,5.3765,5.3802,5.3812,5.3826,5.386,5.387,5.3934,5.3921,5.3962,5.4034,5.4059,5.4081,5.4176,5.4163,5.4188,5.4237,5.4279,5.429,5.43,5.4335,5.4347,5.4196,5.4196,5.4196,0,5.3694,5.3765,5.3769,5.3822,5.3849,5.3836,5.3893,5.3916,5.3964,5.3982,5.3962,5.4054,5.4075,5.4154,5.4178,5.4195,5.4211,5.4184,5.4289,5.4298,5.4307,5.4341,5.4354,5.4199,5.4199,5.4198,5.4198,0,5.3806,5.3856,5.3897,5.3946,5.3977,5.4032,5.4044,5.4075,5.4073,5.4085,5.4151,5.4177,5.4222,5.4241,5.4238,5.432,5.4308,5.4288,5.4251,5.4324,5.4355,5.4368,5.4203,5.4202,5.4201,5.4201,0,0,5.3908,5.3961,5.3976,5.4,5.4041,5.4079,5.4133,5.418,5.4207,5.424,5.4286,5.4349,5.4332,5.4357,5.4357,5.4395,5.447,5.437,5.4371,5.4389,5.4563,5.4578,5.4593,5.4462,5.4464,5.4466,5.456,0,5.3995,5.4092,5.4099,5.4186,5.4233,5.4222,5.4269,5.43,5.4313,5.4353,5.4367,5.4412,5.4386,5.4401,5.4437,5.4453,5.4505,5.4446,5.4504,5.4506,5.4497,5.4609,5.4625,5.4712,5.4572,5.4574,5.4576,0,5.4109,5.4149,5.4242,5.4279,5.4299,5.4342,5.4386,5.4425,5.4459,5.4466,5.4496,5.4492,5.4547,5.4508,5.4585,5.4545,5.4569,5.458,5.4584,5.4589,5.4546,5.4618,5.474,5.4754,5.4595,5.4594,5.4592,0,5.4176,5.4253,5.4319,5.4339,5.4383,5.4414,5.4433,5.4465,5.4494,5.4532,5.4551,5.4595,5.4619,5.4652,5.466,5.4631,5.4737,5.4698,5.4744,5.4744,5.4767,5.4766,5.4895,5.4782,5.4781,5.4781,5.4781,0,5.4272,5.433,5.435,5.4391,5.4455,5.4462,5.4525,5.4542,5.4572,5.4615,5.4608,5.4648,5.4656,5.4698,5.4704,5.4767,5.4778,5.4785,5.4786,5.4786,5.4785,5.4802,5.4796,5.4785,5.4784,5.4783,5.4783,0,5.4357,5.4373,5.4445,5.4482,5.4493,5.4539,5.457,5.4609,5.4622,5.4678,5.4691,5.4711,5.4761,5.4772,5.483,5.4834,5.491,5.4904,5.4899,5.4899,5.4945,5.4941,5.509,5.511,5.4983,5.4984,5.4985,0,5.4418,5.4463,5.4506,5.4536,5.4558,5.4605,5.4635,5.4644,5.4675,5.4719,5.4753,5.4802,5.4842,5.4922,5.4941,5.4986,5.4982,5.5031,5.4988,5.4988,5.4984,5.4982,5.4987,5.5039,5.5041,5.5042,5.5043,0,5.4526,5.4532,5.4576,5.4625,5.4661,5.4699,5.4734,5.4759,5.4772,5.4808,5.486,5.4891,5.4952,5.5001,5.5047,5.5066,5.5057,5.5056,5.507,5.5071,5.5066,5.5071,5.4922,5.5053,5.5052,5.5051,5.5051,5.505,5.4602,5.4642,5.4679,5.4729,5.4758,5.4792,5.4831,5.4851,5.4895,5.4947,5.4948,5.5005,5.504,5.51,5.5122,5.5166,5.5151,5.517,5.5175,5.518,5.5185,5.5059,5.5174,5.5174,5.5174,5.5174,5.5174,0,5.471,5.4734,5.478,5.4832,5.4872,5.4862,5.4901,5.4935,5.4986,5.502,5.506,5.512,5.5169,5.5193,5.524,5.5271,5.5268,5.5283,5.5281,5.5286,5.5195,5.5179,5.5285,5.5285,5.5285,5.5285,5.5285,5.5285,5.4771,5.4839,5.485,5.4932,5.4955,5.5013,5.5036,5.5068,5.5095,5.5164,5.5205,5.5221,5.525,5.5301,5.5345,5.535,5.5368,5.5386,5.539,5.5304,5.5292,5.5282,5.5267,5.539,5.539,5.5478,5.5478,5.5479]}]]